GW0007 Weather Reports


Display with metric or nautical units.
time (UTC)temp
F
wind
direction
speed
MPH
gust
MPH
rain 1hr
in
rain 24hr
in
rain mn
in
humidity
%
barometer
mb
20260902114548 61 243 7.0 11.0 0.00 0.00 0.00 64 1010.9
20260902113054 60 252 6.0 11.0 0.00 0.00 0.00 67 1010.9
20260902111549 61 271 4.0 14.0 0.00 0.00 0.00 66 1011.0
20260902110044 61 232 8.0 13.0 0.00 0.00 0.00 65 1011.2
20260902104543 61 251 6.0 13.0 0.00 0.00 0.00 64 1011.2
20260902103049 62 293 4.0 10.0 0.00 0.00 0.00 64 1011.4
20260902101545 63 331 6.0 14.0 0.00 0.00 0.00 60 1011.6
20260902100104 64 281 7.0 17.0 0.00 0.00 0.00 59 1011.5
20260902094607 64 280 6.0 21.0 0.00 0.00 0.00 61 1011.6
20260902093047 65 203 9.0 19.0 0.00 0.00 0.00 56 1011.6
20260902091550 65 269 5.0 13.0 0.00 0.00 0.00 56 1011.5
20260902090044 65 228 9.0 17.0 0.00 0.00 0.00 54 1011.6
20260902084553 65 262 9.0 18.0 0.00 0.00 0.00 56 1012.0
20260902083116 62 304 6.0 13.0 0.00 0.00 0.00 64 1012.0
20260902081545 58 276 7.0 16.0 0.00 0.00 0.00 72 1012.1
20260902080057 54 283 1.0 4.0 0.00 0.00 0.00 82 1012.0
20260902074552 54 327 3.0 8.0 0.00 0.00 0.00 81 1012.1
20260902073048 55 0 0.0 3.0 0.00 0.00 0.00 80 1011.7
20260902071544 54 286 0.0 2.0 0.00 0.00 0.00 84 1011.4
20260902070044 54 0 0.0 1.0 0.00 0.00 0.00 83 1011.5
20260902064551 54 0 0.0 1.0 0.00 0.00 0.00 83 1011.6
20260902063046 55 0 0.0 2.0 0.00 0.00 0.00 82 1011.6
20260902061552 56 129 2.0 4.0 0.00 0.00 0.00 78 1011.7
20260902060052 56 139 2.0 4.0 0.00 0.00 0.00 77 1011.4
20260902054543 57 248 1.0 2.0 0.00 0.00 0.00 78 1011.5
20260902053044 56 311 0.0 1.0 0.00 0.00 0.00 80 1011.6
20260902051546 56 311 1.0 3.0 0.00 0.00 0.00 81 1011.7
20260902050049 59 166 2.0 3.0 0.00 0.00 0.00 72 1011.6
20260902044544 60 108 0.0 1.0 0.00 0.00 0.00 71 1011.5
20260902043043 61 0 0.0 2.0 0.00 0.00 0.00 65 1011.4
20260902041553 64 0 2.0 3.0 0.00 0.00 0.00 59 1011.5
20260902040050 63 290 0.0 1.0 0.00 0.00 0.00 59 1011.6
20260902034556 65 290 1.0 3.0 0.00 0.00 0.00 56 1011.6
20260902033058 66 267 1.0 4.0 0.00 0.00 0.00 54 1011.6
20260902031557 65 251 2.0 5.0 0.00 0.00 0.00 56 1011.4
20260902030049 65 226 2.0 4.0 0.00 0.00 0.00 56 1011.5
20260902024547 65 240 3.0 6.0 0.00 0.00 0.00 59 1011.3
20260902023052 67 290 1.0 4.0 0.00 0.00 0.00 59 1011.0
20260902021542 70 276 1.0 4.0 0.00 0.00 0.00 57 1010.7
20260902020418 72 129 3.0 4.0 0.00 0.00 0.00 48 1010.4
20260902014546 72 85 0.0 2.0 0.00 0.00 0.00 53 1010.5
20260902013044 74 60 1.0 2.0 0.00 0.00 0.00 48 1010.4
20260902011545 76 13 1.0 3.0 0.00 0.00 0.00 46 1010.6
20260902010043 79 13 0.0 1.0 0.00 0.00 0.00 50 1010.6
20260902004553 79 15 1.0 3.0 0.00 0.00 0.00 42 1010.7
20260902003050 80 60 1.0 4.0 0.00 0.00 0.00 38 1010.7
20260902001546 81 360 1.0 3.0 0.00 0.00 0.00 36 1010.7
20260902000043 81 51 1.0 5.0 0.00 0.00 0.00 36 1010.8
20260901234556 80 115 0.0 6.0 0.00 0.00 0.00 37 1011.0
20260901233050 80 123 4.0 7.0 0.00 0.00 0.00 36 1011.1
20260901231546 80 138 0.0 14.0 0.00 0.00 0.00 37 1011.2
20260901230055 79 0 0.0 4.0 0.00 0.00 0.00 39 1011.4
20260901224554 78 314 2.0 3.0 0.00 0.00 0.00 42 1011.4
20260901223048 77 281 2.0 9.0 0.00 0.00 0.00 42 1011.7
20260901221546 77 308 3.0 7.0 0.00 0.00 0.00 43 1011.8
20260901220058 77 288 3.0 11.0 0.00 0.00 0.00 43 1012.0
20260901214552 78 255 8.0 14.0 0.00 0.00 0.00 40 1012.1
20260901213057 78 259 7.0 13.0 0.00 0.00 0.00 40 1012.3
20260901211554 79 255 7.0 17.0 0.00 0.00 0.00 37 1012.3
20260901210052 78 335 4.0 12.0 0.00 0.00 0.00 40 1012.5
20260901204547 77 335 7.0 10.0 0.00 0.00 0.00 39 1012.5
20260901203048 76 328 3.0 10.0 0.00 0.00 0.00 41 1012.8
20260901201552 75 335 9.0 15.0 0.00 0.00 0.00 41 1013.1
20260901194557 72 321 5.0 13.0 0.00 0.00 0.00 47 1013.5
20260901193108 71 345 11.0 20.0 0.00 0.00 0.00 49 1013.8
20260901191547 71 295 2.0 10.0 0.00 0.00 0.00 53 1014.1
20260901190053 71 288 9.0 16.0 0.00 0.00 0.00 49 1014.3
20260901184554 71 304 10.0 17.0 0.00 0.00 0.00 47 1014.4
20260901183051 71 309 8.0 20.0 0.00 0.00 0.00 49 1014.5
20260901181550 71 249 10.0 22.0 0.00 0.00 0.00 49 1014.4
20260901180055 71 274 9.0 20.0 0.00 0.00 0.00 49 1014.5
20260901174551 72 231 9.0 23.0 0.00 0.00 0.00 50 1014.5
20260901173055 67 258 5.0 13.0 0.00 0.00 0.00 60 1014.7
20260901171557 64 82 2.0 4.0 0.00 0.00 0.00 59 1014.9
20260901170057 62 95 5.0 8.0 0.00 0.00 0.00 57 1015.0
20260901164557 62 203 8.0 14.0 0.00 0.00 0.00 55 1015.0
20260901163049 58 96 4.0 6.0 0.00 0.00 0.00 68 1015.2
20260901161546 55 0 0.0 4.0 0.00 0.00 0.00 73 1014.9
20260901160043 54 306 1.0 5.0 0.00 0.00 0.00 75 1014.7
20260901154553 54 294 1.0 9.0 0.00 0.00 0.00 72 1015.3
20260901153043 52 0 0.0 3.0 0.00 0.00 0.00 77 1015.1
20260901151550 51 287 2.0 5.0 0.00 0.00 0.00 81 1015.3
20260901150049 50 293 5.0 7.0 0.00 0.00 0.00 81 1015.8
20260901144545 50 292 1.0 2.0 0.00 0.00 0.00 80 1015.9
20260901143052 49 309 2.0 4.0 0.00 0.00 0.00 80 1015.9
20260901141543 49 331 0.0 1.0 0.00 0.00 0.00 78 1016.1
20260901140050 49 0 1.0 2.0 0.00 0.00 0.00 82 1015.9
20260901134545 49 0 0.0 4.0 0.00 0.00 0.00 77 1016.0
20260901133053 46 264 0.0 1.0 0.00 0.00 0.00 84 1015.7
20260901131545 46 0 0.0 2.0 0.00 0.00 0.00 81 1015.5
20260901130047 45 0 1.0 4.0 0.00 0.00 0.00 89 1015.5
20260901124545 45 0 0.0 1.0 0.00 0.00 0.00 85 1015.5
20260901123117 46 0 0.0 2.0 0.00 0.00 0.00 81 1015.5
20260901121603 45 210 3.0 4.0 0.00 0.00 0.00 82 1015.5
20260901120052 45 0 0.0 2.0 0.00 0.00 0.00 84 1015.3